Showing default

ZHUHAI-1 03D, 44538

Orbit data source: Space-Track

ZHUHAI-1 03D, 44538 is a payload satellite owned by Zhuhai Orbita (CN) in SSO that was launched on Thu, 19 Sep 2019 UTC via a CHANG ZHENG 11 launch vehicle from the Jiuquan Satellite Launch Center, China (JSC). Payloads include a variety of satellites, spacecraft, and rockets equipped with specific instruments for various scientific and technological missions. These include communications satellites like Starlink; space stations such as the ISS; scientific satellites like the Hubble; Earth observation satellites from companies like Planet Labs, Umbra, and HawkEye 360; GPS; miniature CubeSats for education and research; and military/defense satellites.

Loading next visibility...
ZHUHAI-1 03D details
Identifier
44538, 2019-060E
Orbit
SSO
Last TLE update9 hours ago
Origin
Flag of CNZhuhai Orbita (CN / PRC)
ManufacturerHarbin
MissionOperational Commercial Imaging
Bus & MotorOHS-1, Unknown motor
Mass69 kg wet, 69 kg dry
Launch date (UTC)
2019-09-19 (5 years ago)
Launch vehicle
CHANG ZHENG 11
Launch site
Jiuquan Satellite Launch Center, China (JSC)
Object type
Payload
Rocket body
Debris
Shape & HBRBox, Unknown HBR
Radar Cross Section0.280 m², Medium (>0.1 m² and < 1m²)

Expand to show TLE details & history

TLE from 9 hours ago
0 ZHUHAI-1 03D
1 44538U 19060E   24361.26984972  .00028417  00000-0  11104-2 0  9994
2 44538  97.4797 129.7972 0013639  78.6159 281.6610 15.25748184293535
Epoch: 2024-12-26T06:28Z
Definitive object data (Epoch: 2024-12-26T06:28:35.015Z)
Latitude-0.00009°
Longitude-62.60035°
Altitude489.755 km
Speed7.621 km/s
True Right ascension08h 39m 11s
True Declination0° 00' 00"
Sunlit
Object was in full shadow at TLE epoch
Visualization TLE readout
Latitude18.60711°
Longitude120.27635°
Altitude490.028 km
Speed7.622 km/s
Apparent Right ascension23h 09m 01s
Apparent Declination-12° 26' 32"
Sunlit
Object is in daylight
Visualization observer readout
Local Sidereal Time14:24:54
Azimuth71.53° E
Elevation-39.042°
Doppler factor1
Orbital elements
Apogee altitude494.862 km
Perigee altitude476.14 km
Semi-major axis6,863.638 km
Eccentricity0.0013639
Inclination97.4797°
RAAN129.7972°
Arg. of periapsis78.6159°
True anomaly281.50788°
Mean anomaly281.661°
Eccentric anomaly281.58445°
Mean motion3.81691 °/min
BSTAR0.0011104
Orbital period94.32 mins
Loading maneuver chart data...
Loading historical data...
Loading historical data...
Loading historical data...
Loading historical data...
Loading historical data...
Loading historical data...
Loading historical data...

ZHUHAI-1 03D Visibility forecast

Observer location: undefined°, undefined

Span
Click to sort rows by Start time (UTC) header in descending order
Start Az.
Max El. time (UTC)
Max El. Az.
Max El.
End time (UTC)
End Az.
5 mins2024-12-26 21:12:57.801Z38.329° NE2024-12-26 21:14:57.801Z83.577° E29.224°2024-12-26 21:17:57.801Z160.557° S
4 mins2024-12-27 09:22:57.801Z220.774° SW2024-12-27 09:23:57.801Z249.92° W27.814°2024-12-27 09:26:57.801Z323.305° NNW
|